| time (UTC) | temp F | wind direction | speed MPH | gust MPH | rain 1hr in | rain 24hr in | rain mn in | humidity % | barometer mb |
| 20260505035509 | 58 | 255 | 1.0 | 4.0 | 0.00 | 0.02 | 0.02 | 37 | 1005.9 |
| 20260505035007 | 58 | 295 | 0.0 | 4.0 | 0.00 | 0.02 | 0.02 | 37 | 1005.8 |
| 20260505034522 | 59 | 315 | 1.0 | 4.0 | 0.00 | 0.02 | 0.02 | 36 | 1005.7 |
| 20260505034008 | 59 | 281 | 0.0 | 4.0 | 0.00 | 0.02 | 0.02 | 36 | 1005.6 |
| 20260505033515 | 59 | 311 | 2.0 | 4.0 | 0.00 | 0.02 | 0.02 | 35 | 1005.5 |
| 20260505033034 | 60 | 273 | 1.0 | 4.0 | 0.00 | 0.02 | 0.02 | 36 | 1005.5 |
| 20260505032508 | 60 | 286 | 1.0 | 2.0 | 0.00 | 0.02 | 0.02 | 36 | 1005.4 |
| 20260505032007 | 60 | 315 | 1.0 | 3.0 | 0.00 | 0.02 | 0.02 | 35 | 1005.5 |
| 20260505031508 | 60 | 325 | 1.0 | 3.0 | 0.00 | 0.02 | 0.02 | 35 | 1005.5 |
| 20260505031004 | 61 | 331 | 1.0 | 3.0 | 0.00 | 0.02 | 0.02 | 35 | 1005.3 |
| 20260505030508 | 61 | 82 | 0.0 | 2.0 | 0.00 | 0.02 | 0.02 | 35 | 1005.5 |
| 20260505030012 | 61 | 5 | 0.0 | 3.0 | 0.00 | 0.02 | 0.02 | 35 | 1005.4 |
| 20260505025508 | 61 | 28 | 1.0 | 7.0 | 0.00 | 0.02 | 0.02 | 34 | 1005.4 |
| 20260505025007 | 62 | 36 | 1.0 | 7.0 | 0.00 | 0.02 | 0.02 | 34 | 1005.3 |
| 20260505024545 | 62 | 72 | 2.0 | 5.0 | 0.00 | 0.02 | 0.02 | 34 | 1005.4 |
| 20260505024011 | 62 | 33 | 0.0 | 3.0 | 0.00 | 0.02 | 0.02 | 34 | 1005.3 |
| 20260505023507 | 62 | 20 | 0.0 | 4.0 | 0.00 | 0.02 | 0.02 | 33 | 1004.9 |
| 20260505023021 | 63 | 21 | 1.0 | 4.0 | 0.00 | 0.02 | 0.02 | 33 | 1004.8 |
| 20260505022508 | 63 | 352 | 1.0 | 5.0 | 0.00 | 0.02 | 0.02 | 31 | 1004.6 |
| 20260505022010 | 63 | 19 | 1.0 | 6.0 | 0.00 | 0.02 | 0.02 | 32 | 1004.4 |
| 20260505021542 | 63 | 342 | 1.0 | 6.0 | 0.00 | 0.02 | 0.02 | 32 | 1004.4 |
| 20260505021007 | 64 | 9 | 1.0 | 13.0 | 0.00 | 0.02 | 0.02 | 31 | 1004.1 |
| 20260505020503 | 64 | 345 | 3.0 | 13.0 | 0.00 | 0.02 | 0.02 | 30 | 1004.0 |
| 20260505020011 | 64 | 312 | 5.0 | 13.0 | 0.00 | 0.02 | 0.02 | 30 | 1003.9 |
| 20260505015504 | 64 | 15 | 3.0 | 6.0 | 0.00 | 0.02 | 0.02 | 31 | 1003.7 |
| 20260505015005 | 65 | 304 | 2.0 | 6.0 | 0.00 | 0.02 | 0.02 | 31 | 1003.6 |
| 20260505014523 | 65 | 338 | 2.0 | 9.0 | 0.00 | 0.02 | 0.02 | 32 | 1003.5 |
| 20260505014008 | 65 | 46 | 1.0 | 9.0 | 0.00 | 0.02 | 0.02 | 32 | 1003.4 |
| 20260505013508 | 66 | 37 | 3.0 | 10.0 | 0.00 | 0.02 | 0.02 | 32 | 1003.1 |
| 20260505013020 | 66 | 24 | 3.0 | 10.0 | 0.00 | 0.02 | 0.02 | 31 | 1002.8 |
| 20260505012512 | 66 | 291 | 1.0 | 8.0 | 0.00 | 0.02 | 0.02 | 31 | 1002.7 |
| 20260505012011 | 67 | 61 | 3.0 | 8.0 | 0.00 | 0.02 | 0.02 | 32 | 1002.6 |
| 20260505011530 | 67 | 10 | 4.0 | 9.0 | 0.00 | 0.02 | 0.02 | 31 | 1002.6 |
| 20260505011008 | 67 | 17 | 3.0 | 9.0 | 0.00 | 0.02 | 0.02 | 31 | 1002.3 |
| 20260505010508 | 68 | 313 | 2.0 | 5.0 | 0.00 | 0.02 | 0.02 | 31 | 1002.2 |
| 20260505010028 | 68 | 38 | 1.0 | 6.0 | 0.00 | 0.02 | 0.02 | 31 | 1001.9 |
| 20260505005509 | 69 | 11 | 1.0 | 8.0 | 0.00 | 0.02 | 0.02 | 30 | 1001.9 |
| 20260505005005 | 69 | 351 | 4.0 | 10.0 | 0.00 | 0.02 | 0.02 | 30 | 1001.7 |
| 20260505004524 | 70 | 295 | 3.0 | 17.0 | 0.00 | 0.02 | 0.02 | 31 | 1001.6 |
| 20260505004005 | 70 | 318 | 3.0 | 17.0 | 0.00 | 0.02 | 0.02 | 30 | 1001.4 |
| 20260505003509 | 71 | 276 | 5.0 | 13.0 | 0.00 | 0.02 | 0.02 | 30 | 1001.1 |
| 20260505003019 | 71 | 76 | 3.0 | 12.0 | 0.00 | 0.02 | 0.02 | 30 | 1000.8 |
| 20260505002510 | 72 | 352 | 4.0 | 18.0 | 0.00 | 0.02 | 0.02 | 30 | 1000.7 |
| 20260505002010 | 72 | 10 | 5.0 | 18.0 | 0.00 | 0.02 | 0.02 | 29 | 1000.5 |
| 20260505001525 | 72 | 246 | 2.0 | 13.0 | 0.00 | 0.02 | 0.02 | 29 | 1000.6 |
| 20260505001007 | 73 | 297 | 6.0 | 13.0 | 0.00 | 0.02 | 0.02 | 28 | 1000.7 |
| 20260505000507 | 74 | 296 | 3.0 | 12.0 | 0.00 | 0.02 | 0.02 | 28 | 1000.5 |
| 20260505000026 | 74 | 12 | 5.0 | 12.0 | 0.00 | 0.02 | 0.02 | 29 | 1000.3 |
| 20260504235510 | 75 | 9 | 4.0 | 11.0 | 0.00 | 0.02 | 0.02 | 29 | 1000.2 |
| 20260504235015 | 76 | 38 | 4.0 | 13.0 | 0.00 | 0.02 | 0.02 | 28 | 1000.1 |
| 20260504234526 | 76 | 261 | 5.0 | 13.0 | 0.00 | 0.02 | 0.02 | 28 | 1000.1 |
| 20260504234012 | 76 | 9 | 4.0 | 10.0 | 0.00 | 0.02 | 0.02 | 28 | 999.9 |
| 20260504233507 | 77 | 29 | 3.0 | 10.0 | 0.00 | 0.02 | 0.02 | 28 | 999.8 |
| 20260504233018 | 77 | 351 | 3.0 | 8.0 | 0.00 | 0.02 | 0.02 | 29 | 999.8 |
| 20260504232509 | 77 | 9 | 2.0 | 12.0 | 0.00 | 0.02 | 0.02 | 30 | 1000.0 |
| 20260504232010 | 77 | 326 | 5.0 | 12.0 | 0.00 | 0.02 | 0.02 | 29 | 1000.0 |
| 20260504231524 | 77 | 21 | 2.0 | 12.0 | 0.00 | 0.02 | 0.02 | 31 | 999.8 |
| 20260504231009 | 77 | 103 | 1.0 | 11.0 | 0.00 | 0.02 | 0.02 | 32 | 999.6 |
| 20260504230509 | 76 | 267 | 3.0 | 14.0 | 0.00 | 0.02 | 0.02 | 33 | 999.6 |
| 20260504230027 | 75 | 44 | 2.0 | 14.0 | 0.00 | 0.02 | 0.02 | 38 | 999.6 |
| 20260504225512 | 74 | 254 | 4.0 | 8.0 | 0.00 | 0.02 | 0.02 | 42 | 999.6 |
| 20260504225008 | 74 | 165 | 1.0 | 7.0 | 0.00 | 0.02 | 0.02 | 44 | 999.7 |
| 20260504224511 | 74 | 319 | 2.0 | 7.0 | 0.00 | 0.02 | 0.02 | 45 | 999.8 |
| 20260504224007 | 74 | 267 | 2.0 | 9.0 | 0.00 | 0.02 | 0.02 | 44 | 1000.0 |
| 20260504223504 | 75 | 309 | 2.0 | 9.0 | 0.00 | 0.02 | 0.02 | 45 | 999.7 |
| 20260504223016 | 76 | 169 | 5.0 | 9.0 | 0.00 | 0.02 | 0.02 | 41 | 999.0 |
| 20260504222505 | 77 | 281 | 3.0 | 7.0 | 0.00 | 0.02 | 0.02 | 40 | 999.1 |
| 20260504222012 | 77 | 204 | 2.0 | 7.0 | 0.00 | 0.02 | 0.02 | 40 | 999.0 |
| 20260504221520 | 76 | 257 | 3.0 | 7.0 | 0.02 | 0.02 | 0.02 | 39 | 999.0 |
| 20260504221009 | 75 | 259 | 3.0 | 6.0 | 0.02 | 0.02 | 0.02 | 43 | 999.1 |
| 20260504220505 | 73 | 271 | 1.0 | 7.0 | 0.02 | 0.02 | 0.02 | 46 | 999.0 |
| 20260504220003 | 72 | 290 | 2.0 | 7.0 | 0.02 | 0.02 | 0.02 | 51 | 999.0 |
| 20260504215504 | 70 | 121 | 1.0 | 2.0 | 0.02 | 0.02 | 0.02 | 61 | 999.4 |
| 20260504215004 | 70 | 105 | 0.0 | 2.0 | 0.02 | 0.02 | 0.02 | 65 | 999.4 |
| 20260504214508 | 70 | 105 | 0.0 | 2.0 | 0.02 | 0.02 | 0.02 | 65 | 999.4 |
| 20260504214009 | 70 | 105 | 0.0 | 2.0 | 0.02 | 0.02 | 0.02 | 62 | 999.5 |
| 20260504213509 | 70 | 146 | 0.0 | 2.0 | 0.02 | 0.02 | 0.02 | 65 | 999.5 |
| 20260504213012 | 70 | 171 | 0.0 | 2.0 | 0.02 | 0.02 | 0.02 | 60 | 999.7 |
| 20260504212508 | 70 | 158 | 0.0 | 19.0 | 0.02 | 0.02 | 0.02 | 55 | 999.7 |
| 20260504212008 | 72 | 301 | 1.0 | 23.0 | 0.02 | 0.02 | 0.02 | 53 | 999.8 |
| 20260504211520 | 74 | 263 | 9.0 | 23.0 | 0.00 | 0.00 | 0.00 | 36 | 1000.7 |
| 20260504211008 | 79 | 261 | 7.0 | 11.0 | 0.00 | 0.00 | 0.00 | 33 | 1000.3 |
| 20260504210512 | 80 | 210 | 3.0 | 9.0 | 0.00 | 0.00 | 0.00 | 30 | 999.6 |
| 20260504210024 | 81 | 273 | 4.0 | 9.0 | 0.00 | 0.00 | 0.00 | 29 | 999.4 |
| 20260504205504 | 81 | 269 | 4.0 | 15.0 | 0.00 | 0.00 | 0.00 | 30 | 999.4 |
| 20260504205005 | 81 | 269 | 4.0 | 15.0 | 0.00 | 0.00 | 0.00 | 31 | 999.5 |
| 20260504204515 | 81 | 244 | 6.0 | 12.0 | 0.00 | 0.00 | 0.00 | 30 | 999.6 |
| 20260504204006 | 81 | 266 | 4.0 | 12.0 | 0.00 | 0.00 | 0.00 | 30 | 999.6 |
| 20260504203505 | 81 | 270 | 5.0 | 12.0 | 0.00 | 0.00 | 0.00 | 31 | 999.6 |
| 20260504203011 | 82 | 266 | 4.0 | 10.0 | 0.00 | 0.00 | 0.00 | 30 | 999.4 |
| 20260504202507 | 81 | 229 | 2.0 | 10.0 | 0.00 | 0.00 | 0.00 | 32 | 999.6 |
| 20260504202007 | 80 | 261 | 3.0 | 6.0 | 0.00 | 0.00 | 0.00 | 31 | 999.7 |
| 20260504201519 | 80 | 268 | 3.0 | 8.0 | 0.00 | 0.00 | 0.00 | 32 | 999.7 |
| 20260504201009 | 80 | 188 | 2.0 | 8.0 | 0.00 | 0.00 | 0.00 | 32 | 999.9 |
| 20260504200509 | 80 | 273 | 1.0 | 7.0 | 0.00 | 0.00 | 0.00 | 32 | 999.9 |
| 20260504200021 | 80 | 276 | 3.0 | 11.0 | 0.00 | 0.00 | 0.00 | 30 | 1000.0 |
| 20260504195508 | 80 | 238 | 4.0 | 12.0 | 0.00 | 0.00 | 0.00 | 30 | 1000.0 |
| 20260504195009 | 81 | 248 | 4.0 | 12.0 | 0.00 | 0.00 | 0.00 | 30 | 1000.0 |
| 20260504194529 | 80 | 258 | 3.0 | 12.0 | 0.00 | 0.00 | 0.00 | 32 | 1000.1 |
| 20260504194006 | 80 | 202 | 5.0 | 12.0 | 0.00 | 0.00 | 0.00 | 31 | 1000.3 |
| 20260504193507 | 80 | 248 | 5.0 | 11.0 | 0.00 | 0.00 | 0.00 | 32 | 1000.4 |
| 20260504193010 | 80 | 242 | 4.0 | 10.0 | 0.00 | 0.00 | 0.00 | 31 | 1000.4 |
| 20260504192505 | 80 | 265 | 4.0 | 11.0 | 0.00 | 0.00 | 0.00 | 32 | 1000.4 |
| 20260504192008 | 80 | 248 | 3.0 | 11.0 | 0.00 | 0.00 | 0.00 | 31 | 1000.4 |
| 20260504191515 | 80 | 237 | 4.0 | 11.0 | 0.00 | 0.00 | 0.00 | 31 | 1000.4 |
| 20260504191009 | 80 | 240 | 4.0 | 11.0 | 0.00 | 0.00 | 0.00 | 32 | 1000.5 |
| 20260504190508 | 80 | 217 | 4.0 | 9.0 | 0.00 | 0.00 | 0.00 | 31 | 1000.5 |
| 20260504190025 | 80 | 239 | 3.0 | 14.0 | 0.00 | 0.00 | 0.00 | 32 | 1000.6 |
| 20260504185503 | 81 | 261 | 8.0 | 14.0 | 0.00 | 0.00 | 0.00 | 31 | 1000.6 |
| 20260504185003 | 81 | 179 | 5.0 | 12.0 | 0.00 | 0.00 | 0.00 | 31 | 1000.5 |
| 20260504184504 | 81 | 285 | 6.0 | 14.0 | 0.00 | 0.00 | 0.00 | 30 | 1000.6 |
| 20260504184003 | 81 | 254 | 4.0 | 13.0 | 0.00 | 0.00 | 0.00 | 32 | 1000.6 |
| 20260504183503 | 81 | 284 | 3.0 | 8.0 | 0.00 | 0.00 | 0.00 | 31 | 1000.5 |
| 20260504183010 | 80 | 327 | 2.0 | 16.0 | 0.00 | 0.00 | 0.00 | 32 | 1000.6 |
| 20260504182504 | 80 | 194 | 4.0 | 16.0 | 0.00 | 0.00 | 0.00 | 31 | 1000.7 |
| 20260504182008 | 80 | 291 | 6.0 | 12.0 | 0.00 | 0.00 | 0.00 | 32 | 1000.5 |
| 20260504181516 | 80 | 154 | 4.0 | 12.0 | 0.00 | 0.00 | 0.00 | 34 | 1000.5 |
| 20260504181009 | 80 | 263 | 3.0 | 9.0 | 0.00 | 0.00 | 0.00 | 35 | 1000.5 |
| 20260504180510 | 79 | 298 | 4.0 | 13.0 | 0.00 | 0.00 | 0.00 | 34 | 1000.5 |
| 20260504180020 | 79 | 177 | 5.0 | 13.0 | 0.00 | 0.00 | 0.00 | 35 | 1000.5 |
| 20260504175510 | 79 | 312 | 6.0 | 10.0 | 0.00 | 0.00 | 0.00 | 35 | 1000.5 |
| 20260504175007 | 79 | 284 | 5.0 | 10.0 | 0.00 | 0.00 | 0.00 | 34 | 1000.5 |
| 20260504174503 | 79 | 201 | 2.0 | 8.0 | 0.00 | 0.00 | 0.00 | 34 | 1000.5 |
| 20260504174004 | 79 | 194 | 3.0 | 13.0 | 0.00 | 0.00 | 0.00 | 35 | 1000.5 |
| 20260504173503 | 79 | 174 | 4.0 | 13.0 | 0.00 | 0.00 | 0.00 | 34 | 1000.7 |
| 20260504173008 | 79 | 217 | 3.0 | 9.0 | 0.00 | 0.00 | 0.00 | 36 | 1000.7 |
| 20260504172503 | 79 | 151 | 3.0 | 9.0 | 0.00 | 0.00 | 0.00 | 35 | 1000.8 |
| 20260504172006 | 78 | 197 | 3.0 | 8.0 | 0.00 | 0.00 | 0.00 | 36 | 1000.8 |
| 20260504171512 | 78 | 255 | 2.0 | 11.0 | 0.00 | 0.00 | 0.00 | 38 | 1000.9 |
| 20260504171006 | 78 | 232 | 5.0 | 11.0 | 0.00 | 0.00 | 0.00 | 36 | 1001.0 |
| 20260504170504 | 78 | 248 | 4.0 | 12.0 | 0.00 | 0.00 | 0.00 | 38 | 1000.9 |
| 20260504151004 | 69 | 250 | 3.0 | 7.0 | 0.00 | 0.00 | 0.00 | 47 | 1002.4 |
| 20260504150510 | 69 | 167 | 2.0 | 4.0 | 0.00 | 0.00 | 0.00 | 48 | 1002.4 |
| 20260504141008 | 63 | 180 | 0.0 | 4.0 | 0.00 | 0.00 | 0.00 | 59 | 1002.9 |
| 20260504140507 | 62 | 158 | 1.0 | 4.0 | 0.00 | 0.00 | 0.00 | 60 | 1003.0 |
| 20260504130503 | 53 | 169 | 0.0 | 3.0 | 0.00 | 0.00 | 0.00 | 71 | 1003.4 |
| 20260504110504 | 44 | 178 | 0.0 | 2.0 | 0.00 | 0.00 | 0.00 | 81 | 1003.9 |
| 20260504100503 | 45 | 12 | 0.0 | 2.0 | 0.00 | 0.00 | 0.00 | 78 | 1004.4 |
| 20260504082004 | 47 | 12 | 0.0 | 1.0 | 0.00 | 0.00 | 0.00 | 71 | 1005.4 |
| 20260504081515 | 47 | 12 | 0.0 | 2.0 | 0.00 | 0.00 | 0.00 | 70 | 1005.4 |
| 20260504081004 | 47 | 12 | 0.0 | 2.0 | 0.00 | 0.00 | 0.00 | 70 | 1005.4 |
| 20260504080504 | 47 | 12 | 0.0 | 2.0 | 0.00 | 0.00 | 0.00 | 70 | 1005.6 |
| 20260504050504 | 54 | 247 | 0.0 | 2.0 | 0.00 | 0.00 | 0.00 | 54 | 1007.4 |
| 20260504050017 | 54 | 247 | 0.0 | 2.0 | 0.00 | 0.00 | 0.00 | 53 | 1007.5 |
| 20260504045505 | 55 | 247 | 0.0 | 2.0 | 0.00 | 0.00 | 0.00 | 52 | 1007.5 |
| 20260504045003 | 55 | 252 | 0.0 | 2.0 | 0.00 | 0.00 | 0.00 | 52 | 1007.4 |
| 20260504044520 | 55 | 252 | 0.0 | 2.0 | 0.00 | 0.00 | 0.00 | 51 | 1007.4 |
| 20260504044007 | 56 | 252 | 0.0 | 2.0 | 0.00 | 0.00 | 0.00 | 50 | 1007.5 |
| 20260504043504 | 56 | 252 | 0.0 | 2.0 | 0.00 | 0.00 | 0.00 | 48 | 1007.6 |
| 20260504043027 | 56 | 252 | 0.0 | 2.0 | 0.00 | 0.00 | 0.00 | 49 | 1007.7 |
| 20260504042508 | 57 | 252 | 0.0 | 2.0 | 0.00 | 0.00 | 0.00 | 48 | 1007.6 |
| 20260504042007 | 57 | 250 | 0.0 | 2.0 | 0.00 | 0.00 | 0.00 | 47 | 1007.8 |
| 20260504041502 | 58 | 249 | 0.0 | 2.0 | 0.00 | 0.00 | 0.00 | 45 | 1007.9 |
| 20260504041005 | 58 | 269 | 0.0 | 2.0 | 0.00 | 0.00 | 0.00 | 46 | 1007.8 |
| 20260504040508 | 58 | 269 | 0.0 | 2.0 | 0.00 | 0.00 | 0.00 | 43 | 1007.8 |
| 20260504040012 | 58 | 269 | 0.0 | 2.0 | 0.00 | 0.00 | 0.00 | 43 | 1007.8 |